Nuiqsut, AK

3:35 AM AKDT on March 24, 2017 (GMT -0800)
Nuiqsut

Weather History for PAQT - February, 2013

Change the Weather History Date:

Saturday, February 23, 2013

  Actual Average (PAKU) Record (PAKU)
Temperature  
Mean Temperature -28 °F -  
Max Temperature -25 °F -11 °F 24 °F (2011)
Min Temperature -31 °F -18 °F -43 °F (2007)
Degree Days  
Heating Degree Days 93    
Moisture  
Dew Point -32 °F    
Average Humidity 77    
Maximum Humidity 83    
Minimum Humidity 73    
Precipitation  
Precipitation 0.00 in - - ()
Sea Level Pressure  
Sea Level Pressure 29.94 in    
Wind  
Wind Speed 23 mph (NE)    
Max Wind Speed 29 mph    
Max Gust Speed 34 mph    
Visibility 1 miles    
Events Fog , Snow    
Averages and records for this station are not official NWS values.
T = Trace of Precipitation, MM = Missing Value Source: NWS Daily Summary

Daily Weather History Graph

Daily Weather History Graph

Search for Another Location

Airport or City:

Trip Planner

Search our weather history database for the weather conditions in past years. The results will help you decide how hot, cold, wet, or windy it might be!

Date:

Astronomy

Feb. 23, 2013 Rise Set
Actual Time 8:57 AM AKST 5:38 PM AKST
Civil Twilight 7:53 AM AKST 6:43 PM AKST
Nautical Twilight 6:42 AM AKST 7:54 PM AKST
Astronomical Twilight 5:29 AM AKST 9:08 PM AKST
Moon 3:23 PM AKST (2/23) 8:10 AM AKST (2/23)
Length of Visible Light 10h 49m
Length of Day
8h 40m
Waxing Gibbous, 96% of the Moon is Illuminated
Feb 23
Waxing Gibbous
Feb 25
Full
Mar 4
Last Quarter
Mar 11
New
Mar 19
First Quarter

Hourly Weather History & Observations

Time (AKST) Temp. Windchill Dew Point Humidity Pressure Visibility Wind Dir Wind Speed Gust Speed Precip Events Conditions
12:18 AM -31.0 °F -64.5 °F - N/A% 30.06 in 1.5 mi NE 23.0 mph 28.8 mph N/A   Mostly Cloudy
12:53 AM -31.0 °F -63.1 °F - N/A% 30.06 in 1.8 mi NE 20.7 mph - N/A   Mostly Cloudy
1:34 AM -31.0 °F -64.5 °F - N/A% 30.04 in 1.0 mi NE 23.0 mph 27.6 mph N/A   Mist
1:53 AM -29.9 °F -63.6 °F - N/A% 30.04 in 0.8 mi NE 24.2 mph 31.1 mph N/A   Mist
2:03 AM -29.2 °F -60.7 °F - N/A% 30.03 in 1.2 mi NE 20.7 mph 29.9 mph N/A   Overcast
2:21 AM -29.2 °F -62.1 °F - N/A% 30.02 in 0.8 mi ENE 23.0 mph 31.1 mph N/A   Mist
2:35 AM -29.2 °F -61.4 °F - N/A% 30.02 in 1.2 mi NE 21.9 mph - N/A   Overcast
3:01 AM -29.2 °F -61.4 °F - N/A% 30.01 in 0.8 mi NE 21.9 mph 31.1 mph N/A   Overcast
3:32 AM -29.2 °F -60.0 °F - N/A% 30.00 in 1.0 mi NE 19.6 mph - N/A   Mist
3:40 AM -29.2 °F -62.7 °F - N/A% 29.99 in 0.8 mi NE 24.2 mph 31.1 mph N/A   Mist
3:53 AM -29.9 °F -63.0 °F - N/A% 30.00 in 0.5 mi ENE 23.0 mph 31.1 mph N/A Fog Light Freezing Fog
4:53 AM -29.9 °F -63.6 °F - N/A% 29.97 in 0.8 mi ENE 24.2 mph 32.2 mph N/A   Mist
5:53 AM -29.9 °F -63.0 °F - N/A% 29.95 in 0.5 mi NE 23.0 mph 32.2 mph N/A Fog Light Freezing Fog
6:30 AM -29.2 °F -63.3 °F - N/A% 29.94 in 0.8 mi ENE 25.3 mph 33.4 mph N/A   Mist
6:53 AM -29.9 °F -64.2 °F - N/A% 29.94 in 0.8 mi NE 25.3 mph 32.2 mph N/A   Mist
7:15 AM -29.2 °F -62.7 °F - N/A% 29.93 in 0.5 mi ENE 24.2 mph 29.9 mph N/A Fog Light Freezing Fog
7:36 AM -29.2 °F -61.4 °F - N/A% 29.93 in 0.8 mi NE 21.9 mph 29.9 mph N/A   Mist
7:53 AM -29.9 °F -63.6 °F - N/A% 29.94 in 0.5 mi NE 24.2 mph - N/A Fog Light Freezing Fog
8:08 AM -29.2 °F -63.3 °F - N/A% 29.93 in 0.5 mi NE 25.3 mph 31.1 mph N/A Fog Light Freezing Fog
8:53 AM -29.0 °F -60.5 °F -35.0 °F 73% 29.93 in 0.5 mi NE 20.7 mph 31.1 mph N/A   Haze
9:53 AM -29.0 °F -62.4 °F -34.1 °F 77% 29.92 in 0.2 mi NE 24.2 mph 32.2 mph N/A   Haze
10:22 AM -29.2 °F -62.7 °F -34.6 °F 75% 29.91 in 0.2 mi NE 24.2 mph 31.1 mph N/A   Haze
10:53 AM -29.0 °F -63.0 °F -34.1 °F 77% 29.91 in 0.2 mi NE 25.3 mph 31.1 mph N/A   Haze
11:53 AM -27.9 °F -60.4 °F -33.0 °F 77% 29.91 in 0.2 mi NE 23.0 mph 31.1 mph N/A   Haze
12:37 PM -27.4 °F -60.9 °F -32.8 °F 75% 29.90 in 0.2 mi ENE 25.3 mph 32.2 mph N/A   Haze
12:53 PM -27.9 °F -60.4 °F -33.0 °F 77% 29.91 in 0.2 mi NE 23.0 mph - N/A   Haze
1:53 PM -27.0 °F -59.8 °F -32.1 °F 77% 29.91 in 0.2 mi ENE 24.2 mph 34.5 mph N/A   Haze
2:53 PM -27.0 °F -59.2 °F -32.1 °F 77% 29.90 in 0.2 mi ENE 23.0 mph 29.9 mph N/A   Haze
3:53 PM -26.0 °F -57.1 °F -31.0 °F 77% 29.89 in 0.2 mi ENE 21.9 mph 32.2 mph N/A   Haze
4:53 PM -25.1 °F -55.3 °F -29.9 °F 78% 29.88 in 0.2 mi ENE 20.7 mph 31.1 mph N/A   Haze
5:53 PM -26.0 °F -60.6 °F -31.0 °F 77% 29.89 in 0.2 mi ENE 28.8 mph 34.5 mph N/A   Haze
6:04 PM -27.4 °F -60.9 °F -31.0 °F 83% 29.88 in 0.2 mi ENE 25.3 mph 34.5 mph N/A Fog , Snow Light Snow
6:40 PM -27.4 °F -62.0 °F -32.8 °F 75% 29.88 in 0.5 mi ENE 27.6 mph - N/A   Haze
6:53 PM -27.0 °F -59.8 °F -32.1 °F 77% 29.89 in 0.5 mi ENE 24.2 mph 31.1 mph N/A   Haze
7:53 PM -27.0 °F -59.2 °F -32.1 °F 77% 29.89 in 0.8 mi ENE 23.0 mph - N/A   Haze
8:39 PM -25.6 °F -57.3 °F -31.0 °F 76% 29.88 in 1.0 mi ENE 23.0 mph - N/A   Haze
8:53 PM -26.0 °F -58.4 °F -31.0 °F 77% 29.88 in 0.8 mi ENE 24.2 mph - N/A   Haze
9:53 PM -26.0 °F -58.4 °F -29.9 °F 81% 29.88 in 0.5 mi ENE 24.2 mph 29.9 mph N/A Fog Light Freezing Fog
10:53 PM -26.0 °F -57.8 °F -31.0 °F 77% 29.90 in 0.8 mi ENE 23.0 mph 31.1 mph N/A   Haze
11:14 PM -25.6 °F -59.0 °F -31.0 °F 76% 29.89 in 0.8 mi ENE 26.5 mph - N/A   Haze
11:45 PM -27.4 °F -56.9 °F -32.8 °F 75% 29.90 in 1.0 mi NE 18.4 mph 27.6 mph N/A   Haze
11:53 PM -27.0 °F -55.7 °F -31.0 °F 81% 29.91 in 1.0 mi NE 17.3 mph 25.3 mph N/A   Overcast